Date,TemperatureHighF,TemperatureAvgF,TemperatureLowF,DewpointHighF,DewpointAvgF,DewpointLowF,HumidityHigh,HumidityAvg,HumidityLow,PressureMaxIn,PressureMinIn,WindSpeedMaxMPH,WindSpeedAvgMPH,GustSpeedMaxMPH,PrecipitationSumIn
2013-1-1,45,42,38,43,36,28,97,81,57,30.10,29.95,5,1,8,0.21
2013-1-2,45,41,38,42,35,30,98,79,61,30.18,29.94,4,2,11,0.24
2013-1-3,42,36,27,36,32,22,94,85,75,30.28,30.16,4,1,7,0.00
2013-1-4,48,35,24,24,21,17,86,60,29,30.33,30.21,6,2,13,0.00
2013-1-5,50,38,27,28,22,19,75,54,30,30.38,30.23,5,2,9,0.00
2013-1-6,54,41,32,37,32,27,91,71,49,30.23,30.05,6,1,11,0.00
2013-1-7,49,39,28,30,27,24,85,63,43,30.44,30.21,5,2,11,0.00
2013-1-8,52,36,23,37,30,21,92,78,55,30.47,30.37,6,1,10,0.00
2013-1-9,58,48,38,49,43,35,94,83,72,30.47,30.38,6,1,8,0.00
2013-1-10,59,52,45,49,40,33,94,67,38,30.55,30.44,4,1,7,0.00
2013-1-11,49,43,40,43,41,35,97,93,69,30.44,30.19,6,2,11,0.22
2013-1-12,67,52,44,60,51,43,99,95,77,30.19,30.13,4,1,6,0.02
2013-1-13,69,58,51,62,56,50,99,92,72,30.16,30.06,7,2,14,0.00
2013-1-14,60,57,50,60,56,49,99,98,97,30.21,30.09,4,1,7,2.20
2013-1-15,50,43,39,49,42,38,98,97,95,30.24,30.11,8,4,13,2.95
2013-1-16,48,43,39,47,42,38,99,98,95,30.11,29.99,4,1,6,1.20
2013-1-17,48,41,32,48,40,31,99,97,93,30.19,29.96,8,2,17,1.86
2013-1-18,44,36,27,34,25,21,97,67,41,30.53,30.18,6,2,16,0.72
2013-1-19,51,35,23,31,27,22,95,75,45,30.49,30.14,7,2,14,0.01
2013-1-20,58,43,28,36,29,25,91,60,31,30.15,30.04,8,3,16,0.01
2013-1-21,54,39,27,33,24,9,93,60,32,30.09,29.93,14,3,23,0.00
2013-1-22,35,29,21,9,1,-4,53,31,19,30.26,30.01,9,3,19,0.00
2013-1-23,43,28,19,21,13,5,78,53,37,30.33,30.02,10,3,19,0.00
2013-1-24,32,27,21,20,7,3,79,44,29,30.49,30.00,6,2,18,0.00
2013-1-25,21,20,20,11,9,5,67,61,50,30.49,30.40,4,1,7,0.00
2013-1-26,38,34,31,31,27,24,78,75,71,30.36,30.23,4,1,8,0.00
2013-1-27,39,31,22,28,24,19,89,75,62,30.57,30.36,7,1,10,0.01
2013-1-28,50,38,32,42,34,27,95,86,71,30.47,30.24,7,2,11,0.04
2013-1-29,68,50,34,56,44,33,97,82,54,30.24,30.06,7,2,12,0.02
2013-1-30,67,62,51,61,58,49,97,90,80,30.06,29.42,14,6,26,2.11
2013-1-31,51,38,31,50,24,19,96,58,45,29.99,29.47,17,5,30,2.04